Find Aprizesat-1

NORAD ID: 28372 Int'l Des: 2004-025 Owner: SPQ Country: US operational
LEOCIRCULARRETROGRADESSO

Live Position

Loading 3D Globe...

About Aprizesat-1

Description loading...

Upcoming Passes

Passes for default location (London). Set your location on the main map for personalized predictions.

Altitude History

Loading altitude history...

Two-Line Element Set

1 28372U 04025G 26106.60948528 .00000157 00000-0 50867-4 0 9993
2 28372 98.6332 115.6518 0044204 344.0692 15.9109 14.51745053152978
Epoch: Apr 16, 2026 • Age: 22 hours

Current Status

Altitude 740.6 km
Velocity 7.49 km/s
Sub-Earth Point 80.07°N, 23.48°E
Launch Date Jun 29, 2004
Age 21.7 years
Type other

Technical Details

Classification Payload
Mass 11.00 kg
Dry Mass 11.00 kg
Total Mass 11.00 kg
Length 0.20 m
Diameter 0.20 m
Span 0.20 m
Shape Box + Ant
Manufacturer SPQ
Bus Type Aprize
Phase Status In Orbit
Owner/State SPQ/US

Most Searched